sat.trackr.live / text

‹ back to catalog

STARLINK-34707

NORAD 65176 · 2025-175C

PAYLOAD ACTIVE UNKNOWN

§ Identity

Operator
Country
US
Launch date
2025-08-14
Launch site
AFWTR
Launch vehicle
Mass (kg)
RCS (m²)

Purposes: comms

External: N2YO · Heavens-Above · Gunter

§ Orbital elements

Epoch: 2026-05-25T02:22:10.779168Z

Period
95.64 min
Inclination
97.4504°
Eccentricity
0.0002576
Mean motion
15.05671878 rev/d
Perigee alt
547.7 km
Apogee alt
551.2 km
Semi-major
6,927.6 km
B*
5.0496e-4
RAAN
17.5308°
Arg perigee
83.4872°
Mean anomaly
276.6648°
Rev number
4,413

§ Raw data

STARLINK-347071 65176U 25175C   26145.09873587  .00007239  00000+0  50496-3 0  99972 65176  97.4504  17.5308 0002576  83.4872 276.6648 15.05671878 44131

JSON: /api/v1/satellites/65176 · /tle

For live sub-satellite position, see the globe view (requires WebGL).

§ Visibility from observer

Set your observer location to see the next 7 days of passes ≥ 10°. The values pass through the URL so the page stays shareable.

No JS? Fill the form by hand. The geolocation button needs JavaScript.